This demonstration page uses our WeatherBlox Daily Observations layout. Learn more.

Left ArrowRight Arrow

30.21309, -93.2044

Hourly Observations for March 2, 2022

Temp ( °F °C ) Dew Point ( °F °C ) Humidity (%) Winds ( mph kmh ) Pressure ( in mb ) Visibility ( mi km ) Precip ( " mm )
12:15 am 00:15 Clear 47 8.1 40 4.7 79 79 Calm 30.21 1023 10 16 0.00 0.00
12:35 am 00:35 Clear 46 7.7 40 4.3 79 79 Calm 30.21 1023 10 16 0.00 0.00
12:55 am 00:55 Clear 45 7.4 40 4.6 83 83 Calm 30.22 1023 10 16 0.00 0.00
1:15 am 01:15 Clear 44 6.4 40 4.6 88 88 Calm 30.21 1023 10 16 0.00 0.00
1:35 am 01:35 Clear 42 5.8 40 4.2 90 90 Calm 30.21 1023 10 16 0.00 0.00
1:55 am 01:55 Clear 44 6.5 40 4.3 86 86 Calm 30.21 1023 10 16 0.00 0.00
2:15 am 02:15 Clear 42 5.8 39 4 88 88 Calm 30.20 1023 10 16 0.00 0.00
2:35 am 02:35 Clear 44 6.6 40 4.6 87 87 Calm 30.20 1023 10 16 0.00 0.00
2:55 am 02:55 Clear 44 6.5 39 4.1 85 85 Calm 30.20 1023 10 16 0.00 0.00
3:15 am 03:15 Clear 44 6.7 40 4.4 85 85 NNW 3 6 30.20 1023 10 16 0.00 0.00
3:35 am 03:35 Clear 44 6.6 40 4.3 85 85 NNW 5 7 30.20 1023 10 16 0.00 0.00
3:55 am 03:55 Clear 43 6.1 39 4 87 87 NNW 5 7 30.20 1023 10 16 0.00 0.00
4:15 am 04:15 Clear 43 6 39 3.7 85 85 NNW 5 7 30.20 1023 10 16 0.00 0.00
4:35 am 04:35 Clear 44 6.7 39 3.8 82 82 NNW 5 7 30.20 1023 10 16 0.00 0.00
4:55 am 04:55 Clear 44 6.9 39 3.8 81 81 NW 3 6 30.21 1023 10 16 0.00 0.00
5:15 am 05:15 Clear 45 7 39 4 81 81 NNW 5 7 30.21 1023 10 16 0.00 0.00
5:35 am 05:35 Clear 42 5.4 37 2.6 82 82 Calm 30.21 1023 10 16 0.00 0.00
6:00 am 06:00 Mostly Clear 39 4 37 3 93 93 Calm 30.22 1023 10 16 0.00 0.00
6:50 am 06:50 Mostly Sunny 39 4 36 2 87 87 Calm 30.23 1024 10 16 0.00 0.00
7:55 am 07:55 Mostly Sunny 46 8 41 5 82 82 Calm 30.25 1024 10 16 0.00 0.00
8:50 am 08:50 Mostly Sunny 54 12 39 4 58 58 Calm 30.27 1025 10 16 0.00 0.00
9:55 am 09:55 Mostly Sunny 63 17 55 13 77 77 Calm 30.28 1025 10 16 0.00 0.00
10:45 am 10:45 Mostly Sunny 66 19 36 2 32 32 Calm 30.27 1025 10 16 0.00 0.00
11:48 am 11:48 Mostly Sunny 70 21 34 1 27 27 SSW 6 9 30.24 1024 10 16 0.00 0.00
12:51 pm 12:51 Mostly Sunny 72 22 34 1 25 25 Calm 30.22 1023 10 16 0.00 0.00
1:55 pm 13:55 Mostly Sunny 73 23 34 1 23 23 VRB 8 13 30.19 1022 10 16 0.00 0.00
2:52 pm 14:52 Mostly Sunny 73 23 34 1 23 23 WSW 9 15 30.18 1022 10 16 0.00 0.00
3:55 pm 15:55 Mostly Sunny 70 21 34 1 27 27 SSW 12 19 30.17 1022 10 16 0.00 0.00
4:55 pm 16:55 Mostly Sunny 70 21 34 1 27 27 SSW 10 17 30.17 1022 10 16 0.00 0.00
5:51 pm 17:51 Mostly Sunny 64 18 36 2 34 34 SSW 8 13 30.17 1022 10 16 0.00 0.00
6:55 pm 18:55 Mostly Clear 61 16 37 3 42 42 SW 7 11 30.18 1022 10 16 0.00 0.00
7:55 pm 19:55 Mostly Clear 54 12 39 4 58 58 Calm 30.18 1022 10 16 0.00 0.00
8:52 pm 20:52 Mostly Clear 48 9 39 4 71 71 S 5 7 30.19 1022 10 16 0.00 0.00
9:55 pm 21:55 Mostly Clear 54 12 45 7 72 72 SW 8 13 30.20 1023 10 16 0.00 0.00
10:15 pm 22:15 Clear 53 11.7 44 6.7 72 72 SSW 3 6 30.20 1023 10 16 0.00 0.00
10:35 pm 22:35 Clear 50 10.1 44 6.6 79 79 SW 3 6 30.20 1023 10 16 0.00 0.00
10:55 pm 22:55 Clear 50 9.8 44 6.6 81 81 SSW 5 7 30.20 1023 10 16 0.00 0.00
11:15 pm 23:15 Clear 49 9.2 44 6.6 84 84 SSW 5 7 30.19 1022 10 16 0.00 0.00
11:35 pm 23:35 Clear 47 8.1 43 5.9 86 86 SSW 3 6 30.19 1022 10 16 0.00 0.00
11:55 pm 23:55 Clear 45 7.3 42 5.7 90 90 SSW 3 6 30.19 1022 10 16 0.00 0.00

Powered by Vaisala Xweather